Weather History for Fargo, ND

Change the Weather History Date:

Sunday, October 6, 2013

  Actual Average Record
Temperature  
Mean Temperature 53 °F 50 °F  
Max Temperature 63 °F 61 °F 90 °F (1993)
Min Temperature 42 °F 39 °F 19 °F (1976)
Degree Days  
Heating Degree Days 12 15  
Month to date heating degree days 76 84  
Since 1 July heating degree days 201 354  
Cooling Degree Days 0 0  
Month to date cooling degree days 0 0  
Year to date cooling degree days 699 548  
Growing Degree Days 2 (Base 50)    
Moisture  
Dew Point 40 °F    
Average Humidity 66    
Maximum Humidity 89    
Minimum Humidity 42    
Precipitation  
Precipitation 0.20 in 0.08 in 1.43 in (1982)
Month to date precipitation 1.40 0.50  
Year to date precipitation 27.71 19.13  
Snow  
Snow 0.00 in 0.00 in 0.40 in (1974)
Month to date snowfall 0.0 0.0  
Since 1 July snowfall 0.0 0.0  
Since 1 September snowfall 0.0 0.0  
Snow Depth 0.00 in    
Sea Level Pressure  
Sea Level Pressure 29.88 in    
Wind  
Wind Speed 13 mph (NW)    
Max Wind Speed 25 mph    
Max Gust Speed 32 mph    
Visibility 8 miles    
Events Rain    
T = Trace of Precipitation, MM = Missing Value Source: NWS Daily Summary

Daily Weather History Graph

Daily Weather History Graph

Search for Another Location

Airport:

Trip Planner

Search our weather history database for the weather conditions in past years. The results will help you decide how hot, cold, wet, or windy it might be!

Date:

Astronomy

Oct. 06, 2013 Rise Set
Actual Time 7:33 AM CDT 6:56 PM CDT
Civil Twilight 7:02 AM CDT 7:26 PM CDT
Nautical Twilight 6:27 AM CDT 8:01 PM CDT
Astronomical Twilight 5:52 AM CDT 8:37 PM CDT
Moon 9:27 AM CDT (10/6) 7:46 PM CDT (10/6)
Length of Visible Light 12h 24m
Length of Day
11h 23m
Waxing Crescent, 3% of the Moon is Illuminated
Oct 6
Waxing Crescent
Oct 11
First Quarter
Oct 18
Full
Oct 26
Last Quarter
Nov 3
New

Hourly Weather History & Observations

Time (CDT) Temp. Windchill Dew Point Humidity Pressure Visibility Wind Dir Wind Speed Gust Speed Precip Events Conditions
12:53 AM 46.0 °F 38.5 °F 43.0 °F 89% 29.85 in 4.0 mi North 19.6 mph 27.6 mph 0.11 in Rain Rain
1:53 AM 46.0 °F 38.5 °F 43.0 °F 89% 29.83 in 4.0 mi North 19.6 mph 27.6 mph 0.16 in Rain Rain
2:53 AM 45.0 °F 37.9 °F 42.1 °F 90% 29.86 in 10.0 mi North 16.1 mph - 0.03 in   Overcast
3:53 AM 45.0 °F 37.6 °F 42.1 °F 90% 29.86 in 3.0 mi North 17.3 mph 21.9 mph 0.00 in Rain Light Rain
4:53 AM 45.0 °F 37.6 °F 42.1 °F 90% 29.86 in 4.0 mi North 17.3 mph - 0.00 in Rain Light Rain
5:18 AM 44.6 °F 37.2 °F 42.8 °F 93% 29.85 in 2.5 mi NNW 17.3 mph - 0.01 in Rain Light Rain
5:27 AM 44.6 °F 36.9 °F 42.8 °F 93% 29.86 in 2.5 mi North 18.4 mph - 0.01 in Rain Light Rain
5:40 AM 44.6 °F 37.4 °F 41.0 °F 87% 29.86 in 3.0 mi North 16.1 mph - 0.01 in Rain Light Rain
5:53 AM 44.1 °F 35.9 °F 41.0 °F 89% 29.88 in 4.0 mi NNW 19.6 mph - 0.01 in Rain Light Rain
6:00 AM 44.6 °F 36.4 °F 41.0 °F 87% 29.87 in 6.0 mi NNW 20.7 mph 26.5 mph 0.00 in Rain Light Rain
6:53 AM 44.1 °F 37.4 °F 41.0 °F 89% 29.89 in 5.0 mi North 13.8 mph - 0.01 in   Overcast
7:53 AM 43.0 °F 35.4 °F 39.0 °F 86% 29.90 in 10.0 mi NNW 16.1 mph 23.0 mph 0.00 in   Overcast
7:56 AM 42.8 °F 35.1 °F 39.2 °F 87% 29.88 in 10.0 mi NNW 16.1 mph 23.0 mph N/A   Overcast
8:24 AM 42.8 °F 34.8 °F 39.2 °F 87% 29.88 in 10.0 mi NNW 17.3 mph 23.0 mph N/A   Overcast
8:53 AM 42.1 °F 34.2 °F 37.9 °F 85% 29.91 in 10.0 mi NNW 16.1 mph - N/A   Scattered Clouds
9:53 AM 45.0 °F 37.4 °F 39.0 °F 80% 29.91 in 10.0 mi NNW 18.4 mph 25.3 mph N/A   Clear
10:53 AM 48.9 °F - 39.0 °F 69% 29.92 in 10.0 mi NNW 17.3 mph - N/A   Clear
11:53 AM 50.0 °F - 39.0 °F 66% 29.92 in 10.0 mi NNW 16.1 mph - N/A   Clear
12:53 PM 53.1 °F - 37.9 °F 57% 29.91 in 10.0 mi NNW 13.8 mph 20.7 mph N/A   Clear
1:53 PM 55.0 °F - 37.0 °F 51% 29.90 in 10.0 mi NNW 15.0 mph - N/A   Clear
2:53 PM 57.9 °F - 37.9 °F 47% 29.88 in 10.0 mi NW 12.7 mph - N/A   Clear
3:53 PM 60.1 °F - 37.9 °F 44% 29.88 in 10.0 mi NNW 11.5 mph - N/A   Clear
4:53 PM 62.1 °F - 39.0 °F 43% 29.87 in 10.0 mi NW 9.2 mph - N/A   Clear
5:53 PM 62.1 °F - 41.0 °F 46% 29.87 in 10.0 mi WNW 6.9 mph - N/A   Clear
6:53 PM 55.9 °F - 41.0 °F 57% 29.87 in 10.0 mi WSW 6.9 mph - N/A   Clear
7:53 PM 53.1 °F - 41.0 °F 64% 29.87 in 10.0 mi WSW 6.9 mph - N/A   Clear
8:53 PM 51.1 °F - 41.0 °F 68% 29.86 in 10.0 mi WSW 6.9 mph - N/A   Clear
9:53 PM 54.0 °F - 42.1 °F 64% 29.86 in 10.0 mi WSW 9.2 mph - N/A   Overcast
10:53 PM 51.1 °F - 41.0 °F 68% 29.85 in 10.0 mi WSW 10.4 mph - N/A   Clear
11:53 PM 50.0 °F - 41.0 °F 71% 29.85 in 10.0 mi West 9.2 mph - N/A   Clear